FW8381 Weather Reports


time (UTC)temp
F
wind
direction
speed
knots
gust
knots
rain 1hr
in
rain 24hr
in
rain mn
in
humidity
%
barometer
mb
20260507160516 56 225 4.3 8.7 0.00 0.20 0.01 77 1011.4
20260507155516 57 135 3.5 7.0 0.00 0.20 0.01 76 1011.7
20260507154516 57 203 6.1 11.3 0.00 0.20 0.01 76 1011.7
20260507153516 57 180 7.0 12.2 0.00 0.20 0.01 74 1011.5
20260507152536 58 203 3.5 7.0 0.00 0.20 0.01 73 1011.2
20260507151516 58 180 4.3 10.4 0.00 0.20 0.01 71 1011.8
20260507150516 59 180 5.2 12.2 0.00 0.20 0.01 68 1011.7
20260507145536 59 203 4.3 7.0 0.00 0.20 0.01 64 1011.7
20260507144516 60 180 3.5 8.7 0.00 0.20 0.01 64 1011.8
20260507143515 62 158 4.3 9.6 0.00 0.20 0.01 61 1012.1
20260507142516 60 203 0.9 4.3 0.00 0.20 0.01 63 1011.8
20260507141516 59 248 2.6 7.8 0.00 0.20 0.01 64 1011.9
20260507140517 59 135 2.6 7.0 0.00 0.20 0.01 62 1012.1
20260507135517 59 45 2.6 5.2 0.00 0.20 0.01 67 1012.4
20260507134538 59 158 2.6 6.1 0.00 0.20 0.01 65 1012.7
20260507133518 58 158 3.5 6.1 0.00 0.20 0.01 64 1012.8
20260507132518 58 158 3.5 8.7 0.00 0.20 0.01 65 1013.0
20260507131538 58 23 2.6 5.2 0.00 0.20 0.01 66 1013.0
20260507130517 58 68 3.5 7.8 0.00 0.20 0.01 66 1013.1
20260507125517 58 158 4.3 7.0 0.00 0.20 0.01 65 1013.2
20260507124517 58 180 4.3 6.1 0.00 0.20 0.01 65 1013.2
20260507123517 58 180 3.5 6.1 0.00 0.20 0.01 66 1013.2
20260507122517 58 180 4.3 7.8 0.00 0.20 0.01 67 1013.2
20260507121558 58 158 4.3 7.8 0.00 0.20 0.01 67 1013.2
20260507120517 58 158 4.3 8.7 0.00 0.20 0.01 65 1013.2
20260507115517 59 158 2.6 7.0 0.00 0.20 0.01 65 1013.5
20260507114518 59 203 4.3 7.0 0.00 0.20 0.01 65 1013.5
20260507113517 60 225 5.2 7.8 0.00 0.20 0.01 69 1013.8
20260507112517 58 203 3.5 7.8 0.00 0.20 0.01 68 1013.6
20260507111517 57 225 2.6 6.1 0.00 0.20 0.01 67 1013.5
20260507110517 57 180 2.6 5.2 0.00 0.20 0.01 67 1013.6
20260507105517 57 225 6.1 10.4 0.00 0.20 0.01 65 1013.7
20260507104537 59 158 3.5 6.1 0.00 0.20 0.01 64 1013.9
20260507103518 60 203 3.5 7.8 0.00 0.20 0.01 63 1014.0
20260507102517 61 180 1.7 5.2 0.00 0.20 0.01 66 1014.2
20260507101537 58 180 2.6 5.2 0.00 0.20 0.01 66 1014.0
20260507100538 59 248 0.9 3.5 0.00 0.20 0.01 68 1014.1
20260507095517 59 203 0.9 3.5 0.00 0.20 0.01 69 1014.2
20260507094517 59 203 6.1 9.6 0.00 0.20 0.01 68 1014.4
20260507093517 59 158 2.6 5.2 0.00 0.20 0.01 72 1014.4
20260507092518 57 225 1.7 4.3 0.00 0.20 0.01 75 1014.3
20260507091517 57 248 1.7 5.2 0.00 0.20 0.01 79 1014.4
20260507090517 55 203 2.6 5.2 0.00 0.20 0.01 80 1014.2
20260507085517 55 203 3.5 7.8 0.00 0.20 0.01 83 1014.4
20260507084517 56 158 2.6 6.1 0.00 0.20 0.01 85 1014.5
20260507083517 55 203 3.5 6.1 0.00 0.20 0.01 88 1014.6
20260507082517 54 180 2.6 5.2 0.00 0.20 0.01 91 1014.7
20260507081517 53 158 3.5 6.1 0.00 0.20 0.01 92 1014.5
20260507080517 52 180 4.3 7.0 0.00 0.20 0.01 93 1014.6
20260507075517 52 135 3.5 5.2 0.00 0.20 0.01 94 1014.8
20260507074517 51 158 1.7 4.3 0.00 0.20 0.01 94 1014.7
20260507073516 53 180 0.9 3.5 0.00 0.20 0.01 94 1015.0
20260507072517 53 0.0 0.9 0.00 0.20 0.01 95 1014.9
20260507071517 51 0.0 1.7 0.00 0.20 0.01 95 1014.7
20260507070517 50 23 2.6 4.3 0.00 0.20 0.01 95 1014.4
20260507065537 49 23 0.9 1.7 0.00 0.20 0.01 95 1014.5
20260507064537 47 0.0 1.7 0.00 0.20 0.01 95 1014.1
20260507063537 44 23 4.3 5.2 0.00 0.20 0.01 95 1013.9
20260507062516 43 23 2.6 4.3 0.00 0.20 0.01 95 1013.9
20260507061537 41 45 3.5 4.3 0.00 0.20 0.01 94 1013.8
20260507060537 41 23 1.7 3.5 0.00 0.20 0.01 94 1013.9
20260507055537 41 0.0 0.9 0.00 0.20 0.01 94 1013.9
20260507054517 41 0 0.9 1.7 0.00 0.20 0.01 94 1013.9
20260507053516 40 0.0 1.7 0.01 0.20 0.01 95 1013.8
20260507052517 40 0.0 0.9 0.01 0.20 0.01 95 1014.1
20260507051517 40 0.0 0.9 0.01 0.20 0.01 94 1014.1
20260507050516 40 0.0 0.9 0.01 0.20 0.01 94 1014.0
20260507045516 40 45 0.9 3.5 0.01 0.20 0.01 94 1013.8
20260507044516 41 0 0.9 1.7 0.01 0.20 0.01 94 1013.9
20260507043516 41 0.0 0.9 0.00 0.19 0.00 94 1014.0
20260507042516 41 0.0 2.6 0.00 0.19 0.00 94 1014.1
20260507041516 41 23 2.6 5.2 0.00 0.19 0.00 94 1014.1
20260507040558 41 0.0 0.0 0.00 0.19 0.00 94 1014.2
20260507035537 41 0.0 0.0 0.00 0.19 0.00 94 1013.9
20260507034516 41 0.0 0.0 0.00 0.19 0.00 94 1014.2
20260507033516 41 0.0 0.0 0.00 0.19 0.00 94 1014.2
20260507032537 41 0.0 0.0 0.00 0.19 0.00 94 1014.0
20260507031516 42 0.0 0.0 0.00 0.19 0.00 94 1014.0
20260507030516 42 0.0 0.0 0.00 0.19 0.00 94 1014.1
20260507025516 42 0.0 0.0 0.00 0.19 0.00 94 1014.3
20260507024536 42 0.0 0.0 0.00 0.19 0.00 94 1014.4
20260507023516 43 0.0 0.0 0.00 0.19 0.00 94 1014.6
20260507022517 43 0.0 0.0 0.00 0.19 0.00 94 1014.5
20260507021517 43 0.0 0.0 0.00 0.19 0.00 94 1014.5
20260507020556 44 0.0 0.0 0.00 0.19 0.00 94 1014.7
20260507015516 44 0.0 0.0 0.00 0.19 0.00 94 1014.5
20260507014516 45 0.0 0.0 0.00 0.19 0.00 94 1014.8
20260507013516 45 0.0 0.0 0.00 0.19 0.00 94 1014.6
20260507012516 45 0.0 0.0 0.00 0.19 0.00 94 1014.9
20260507011516 45 0.0 0.0 0.00 0.19 0.00 94 1014.6
20260507010516 45 0.0 0.0 0.00 0.19 0.00 94 1014.6
20260507005516 45 0.0 0.0 0.00 0.19 0.00 94 1014.7
20260507004516 45 0.0 0.0 0.00 0.19 0.00 94 1014.8
20260507003536 45 0.0 0.0 0.00 0.19 0.00 93 1015.0
20260507002516 45 0.0 0.0 0.00 0.19 0.00 93 1014.9
20260507001536 44 0.0 0.0 0.00 0.19 0.00 93 1014.8
20260507000516 45 0.0 0.0 0.00 0.19 0.00 93 1014.9
20260506235516 45 0.0 0.0 0.00 0.19 0.19 93 1014.9
20260506234516 45 0.0 0.0 0.00 0.19 0.19 93 1014.9
20260506233517 45 0.0 0.0 0.00 0.19 0.19 93 1014.8
20260506232517 44 0.0 0.9 0.00 0.19 0.19 93 1015.0
20260506231517 44 0.0 0.9 0.00 0.19 0.19 93 1014.8
20260506230517 44 0.0 1.7 0.01 0.19 0.19 93 1014.9
20260506225516 44 180 0.9 2.6 0.02 0.19 0.19 93 1014.8
20260506224516 44 0.0 0.0 0.02 0.19 0.19 92 1014.8
20260506223516 44 0.0 0.0 0.02 0.19 0.19 92 1014.6
20260506222516 44 158 1.7 4.3 0.03 0.19 0.19 92 1014.5
20260506221516 44 0 3.5 5.2 0.07 0.19 0.19 92 1014.2
20260506220536 44 45 3.5 5.2 0.09 0.18 0.18 92 1014.0
20260506215536 44 203 0.9 3.5 0.13 0.17 0.17 91 1014.0
20260506214537 45 0.0 1.7 0.17 0.17 0.17 91 1014.1
20260506213516 45 0.0 1.7 0.17 0.17 0.17 90 1014.0
20260506212536 45 0.0 1.7 0.16 0.16 0.16 90 1014.0
20260506211516 45 0.0 1.7 0.12 0.12 0.12 90 1014.0
20260506210516 46 0 1.7 3.5 0.09 0.09 0.09 89 1014.4
20260506205517 48 225 0.9 4.3 0.05 0.05 0.05 89 1014.6
20260506204516 48 180 0.9 3.5 0.00 0.00 0.00 89 1014.4
20260506203516 48 203 0.9 4.3 0.00 0.00 0.00 89 1014.3
20260506202537 48 225 0.9 1.7 0.00 0.00 0.00 89 1013.9
20260506201516 48 203 1.7 4.3 0.00 0.00 0.00 88 1013.6
20260506200516 48 180 0.9 3.5 0.00 0.00 0.00 88 1013.4
20260506195517 48 158 1.7 5.2 0.00 0.00 0.00 88 1013.2
20260506194516 49 113 1.7 5.2 0.00 0.00 0.00 87 1013.0
20260506193537 49 180 0.9 3.5 0.00 0.00 0.00 87 1012.8
20260506192516 49 225 1.7 5.2 0.00 0.00 0.00 86 1012.7
20260506191516 49 158 1.7 4.3 0.00 0.00 0.00 86 1012.6
20260506190517 49 248 0.9 3.5 0.00 0.00 0.00 85 1012.3
20260506185516 49 180 2.6 7.0 0.00 0.00 0.00 84 1012.1
20260506184516 50 203 2.6 7.0 0.00 0.00 0.00 82 1012.3
20260506183516 51 180 3.5 8.7 0.00 0.00 0.00 81 1012.0
20260506182516 52 225 3.5 7.8 0.00 0.00 0.00 78 1011.9
20260506181516 53 158 1.7 5.2 0.00 0.00 0.00 77 1011.8
20260506180516 53 203 1.7 5.2 0.00 0.00 0.00 76 1011.3
20260506175516 54 225 3.5 5.2 0.00 0.00 0.00 74 1011.1
20260506174537 54 180 5.2 9.6 0.00 0.00 0.00 70 1011.0
20260506173515 55 293 0.9 3.5 0.00 0.01 0.00 66 1010.9
20260506172516 56 225 3.5 7.0 0.00 0.04 0.00 65 1011.1
20260506171755 56 203 2.6 6.1 0.00 0.06 0.00 64 1011.0
20260506171419 56 225 5.2 11.3 0.00 0.07 0.00 64 1011.0
20260506170536 56 203 5.2 10.4 0.00 0.07 0.00 64 1010.8
20260506165536 56 203 3.5 7.0 0.00 0.07 0.00 64 1010.7
20260506164516 56 203 4.3 9.6 0.00 0.07 0.00 63 1010.6
20260506163515 57 225 2.6 5.2 0.00 0.07 0.00 63 1010.5
20260506162516 57 0.0 1.7 0.00 0.07 0.00 62 1010.5
20260506161516 57 225 5.2 8.7 0.00 0.07 0.00 62 1010.5